| time (UTC) | temp C | wind direction | speed KPH | gust KPH | rain 1hr cm | rain 24hr cm | rain mn cm | humidity % | barometer mb |
| 20260506084506 | 24 | 159 | 1.6 | 11.3 | 0.00 | 0.03 | 0.00 | 88 | 1007.7 |
| 20260506084004 | 24 | 126 | 8.0 | 12.9 | 0.00 | 0.03 | 0.00 | 88 | 1007.4 |
| 20260506083005 | 25 | 132 | 6.4 | 6.4 | 0.00 | 0.03 | 0.00 | 88 | 1007.6 |
| 20260506082506 | 25 | 153 | 3.2 | 9.7 | 0.00 | 0.03 | 0.00 | 88 | 1007.7 |
| 20260506082004 | 25 | 153 | 1.6 | 11.3 | 0.00 | 0.03 | 0.00 | 88 | 1007.7 |
| 20260506081504 | 25 | 138 | 0.0 | 11.3 | 0.00 | 0.03 | 0.00 | 87 | 1007.9 |
| 20260506080509 | 25 | 171 | 8.0 | 8.0 | 0.00 | 0.03 | 0.00 | 87 | 1007.9 |
| 20260506073504 | 25 | 182 | 3.2 | 11.3 | 0.00 | 0.03 | 0.00 | 87 | 1008.3 |
| 20260506073005 | 25 | 130 | 1.6 | 11.3 | 0.00 | 0.03 | 0.00 | 87 | 1008.3 |
| 20260506072506 | 25 | 136 | 4.8 | 9.7 | 0.00 | 0.03 | 0.00 | 87 | 1008.4 |
| 20260506072010 | 25 | 133 | 1.6 | 9.7 | 0.00 | 0.03 | 0.00 | 87 | 1008.4 |
| 20260506071504 | 25 | 193 | 4.8 | 11.3 | 0.00 | 0.03 | 0.00 | 87 | 1008.5 |
| 20260506071005 | 25 | 126 | 4.8 | 9.7 | 0.00 | 0.03 | 0.00 | 87 | 1008.5 |
| 20260506070507 | 25 | 174 | 3.2 | 8.0 | 0.00 | 0.03 | 0.00 | 87 | 1008.6 |
| 20260506062006 | 25 | 144 | 1.6 | 11.3 | 0.00 | 0.03 | 0.00 | 87 | 1008.7 |
| 20260506061505 | 25 | 158 | 4.8 | 12.9 | 0.00 | 0.03 | 0.00 | 87 | 1008.7 |
| 20260506061006 | 25 | 146 | 3.2 | 12.9 | 0.00 | 0.03 | 0.00 | 87 | 1008.6 |
| 20260506060507 | 25 | 184 | 3.2 | 8.0 | 0.00 | 0.03 | 0.00 | 87 | 1008.6 |
| 20260506051006 | 25 | 181 | 1.6 | 12.9 | 0.00 | 0.03 | 0.00 | 86 | 1008.7 |
| 20260506050510 | 25 | 184 | 3.2 | 12.9 | 0.00 | 0.03 | 0.00 | 86 | 1008.8 |
| 20260506045006 | 25 | 182 | 3.2 | 12.9 | 0.00 | 0.03 | 0.03 | 85 | 1008.7 |
| 20260506044506 | 25 | 137 | 4.8 | 14.5 | 0.00 | 0.03 | 0.03 | 85 | 1008.7 |
| 20260506044005 | 25 | 169 | 1.6 | 16.1 | 0.00 | 0.03 | 0.03 | 85 | 1008.6 |
| 20260506043505 | 25 | 173 | 11.3 | 16.1 | 0.00 | 0.03 | 0.03 | 85 | 1008.6 |
| 20260506043006 | 25 | 169 | 3.2 | 9.7 | 0.00 | 0.03 | 0.03 | 85 | 1008.7 |
| 20260506042506 | 25 | 175 | 9.7 | 14.5 | 0.00 | 0.03 | 0.03 | 85 | 1008.8 |
| 20260506041504 | 25 | 173 | 4.8 | 12.9 | 0.00 | 0.03 | 0.03 | 84 | 1008.6 |
| 20260506041005 | 25 | 164 | 14.5 | 14.5 | 0.00 | 0.03 | 0.03 | 84 | 1008.5 |
| 20260506040506 | 25 | 107 | 1.6 | 17.7 | 0.00 | 0.03 | 0.03 | 84 | 1008.3 |
| 20260506040007 | 25 | 169 | 6.4 | 17.7 | 0.00 | 0.03 | 0.03 | 84 | 1008.4 |
| 20260506035504 | 25 | 139 | 6.4 | 17.7 | 0.00 | 0.03 | 0.03 | 84 | 1008.5 |
| 20260506035006 | 25 | 127 | 8.0 | 11.3 | 0.00 | 0.03 | 0.03 | 84 | 1008.4 |
| 20260506034504 | 25 | 148 | 3.2 | 12.9 | 0.00 | 0.03 | 0.03 | 84 | 1008.4 |
| 20260506033504 | 25 | 128 | 3.2 | 16.1 | 0.00 | 0.03 | 0.03 | 84 | 1008.0 |
| 20260506033006 | 25 | 121 | 4.8 | 11.3 | 0.00 | 0.03 | 0.03 | 83 | 1008.2 |
| 20260506032506 | 25 | 164 | 6.4 | 14.5 | 0.00 | 0.03 | 0.03 | 83 | 1008.2 |
| 20260506032005 | 25 | 161 | 8.0 | 14.5 | 0.00 | 0.03 | 0.03 | 83 | 1008.2 |
| 20260506031505 | 25 | 157 | 3.2 | 8.0 | 0.00 | 0.03 | 0.03 | 83 | 1008.1 |
| 20260506031005 | 25 | 186 | 3.2 | 11.3 | 0.00 | 0.03 | 0.03 | 83 | 1008.1 |
| 20260506030506 | 26 | 182 | 1.6 | 11.3 | 0.00 | 0.03 | 0.03 | 83 | 1008.0 |
| 20260506030009 | 26 | 160 | 1.6 | 11.3 | 0.00 | 0.03 | 0.03 | 83 | 1008.1 |
| 20260506025005 | 26 | 205 | 1.6 | 14.5 | 0.00 | 0.03 | 0.03 | 83 | 1007.8 |
| 20260506024507 | 26 | 145 | 1.6 | 14.5 | 0.00 | 0.03 | 0.03 | 82 | 1007.7 |
| 20260506024005 | 26 | 155 | 4.8 | 9.7 | 0.00 | 0.03 | 0.03 | 82 | 1007.5 |
| 20260506023504 | 26 | 144 | 3.2 | 14.5 | 0.00 | 0.03 | 0.03 | 82 | 1007.4 |
| 20260506022506 | 26 | 131 | 3.2 | 14.5 | 0.00 | 0.03 | 0.03 | 82 | 1007.3 |
| 20260506022004 | 26 | 135 | 3.2 | 9.7 | 0.00 | 0.03 | 0.03 | 81 | 1007.3 |
| 20260506021506 | 26 | 192 | 1.6 | 14.5 | 0.00 | 0.03 | 0.03 | 81 | 1007.2 |
| 20260506021005 | 26 | 143 | 4.8 | 16.1 | 0.00 | 0.03 | 0.03 | 81 | 1007.1 |
| 20260506020509 | 26 | 127 | 1.6 | 11.3 | 0.00 | 0.03 | 0.03 | 80 | 1007.0 |
| 20260506020011 | 26 | 162 | 3.2 | 14.5 | 0.00 | 0.03 | 0.03 | 79 | 1007.0 |
| 20260506015505 | 26 | 162 | 6.4 | 14.5 | 0.00 | 0.03 | 0.03 | 79 | 1007.0 |
| 20260506014509 | 26 | 170 | 1.6 | 12.9 | 0.00 | 0.03 | 0.03 | 78 | 1006.9 |
| 20260506014004 | 26 | 139 | 1.6 | 12.9 | 0.00 | 0.03 | 0.03 | 78 | 1006.7 |
| 20260506013504 | 26 | 198 | 1.6 | 12.9 | 0.00 | 0.03 | 0.03 | 78 | 1006.7 |
| 20260506013005 | 26 | 155 | 3.2 | 22.5 | 0.00 | 0.03 | 0.03 | 78 | 1006.7 |
| 20260506012506 | 26 | 165 | 0.0 | 22.5 | 0.00 | 0.03 | 0.03 | 78 | 1006.6 |
| 20260506012004 | 26 | 169 | 3.2 | 12.9 | 0.00 | 0.03 | 0.03 | 78 | 1006.5 |
| 20260506011506 | 26 | 177 | 4.8 | 14.5 | 0.00 | 0.03 | 0.03 | 78 | 1006.4 |
| 20260506011005 | 26 | 132 | 1.6 | 11.3 | 0.00 | 0.03 | 0.03 | 78 | 1006.3 |
| 20260506010507 | 26 | 148 | 4.8 | 12.9 | 0.00 | 0.03 | 0.03 | 78 | 1006.2 |
| 20260506010010 | 26 | 122 | 1.6 | 12.9 | 0.00 | 0.03 | 0.03 | 78 | 1006.1 |
| 20260506005504 | 26 | 175 | 3.2 | 14.5 | 0.00 | 0.03 | 0.03 | 77 | 1006.2 |
| 20260506005005 | 26 | 159 | 1.6 | 14.5 | 0.00 | 0.03 | 0.03 | 77 | 1006.2 |
| 20260506004504 | 26 | 178 | 1.6 | 22.5 | 0.00 | 0.03 | 0.03 | 77 | 1006.1 |
| 20260506004004 | 27 | 164 | 3.2 | 22.5 | 0.00 | 0.03 | 0.03 | 77 | 1006.0 |
| 20260506003505 | 27 | 135 | 3.2 | 12.9 | 0.00 | 0.03 | 0.03 | 77 | 1006.0 |
| 20260506003005 | 27 | 187 | 6.4 | 14.5 | 0.00 | 0.03 | 0.03 | 77 | 1006.0 |
| 20260506002506 | 27 | 208 | 1.6 | 12.9 | 0.00 | 0.03 | 0.03 | 77 | 1006.1 |
| 20260506002005 | 27 | 155 | 4.8 | 12.9 | 0.00 | 0.03 | 0.03 | 77 | 1006.0 |
| 20260506001005 | 27 | 191 | 9.7 | 19.3 | 0.00 | 0.03 | 0.03 | 77 | 1005.9 |
| 20260506000504 | 27 | 160 | 6.4 | 14.5 | 0.00 | 0.03 | 0.03 | 77 | 1005.8 |
| 20260506000007 | 27 | 179 | 3.2 | 17.7 | 0.00 | 0.03 | 0.03 | 77 | 1006.0 |
| 20260505235005 | 27 | 177 | 3.2 | 16.1 | 0.00 | 0.03 | 0.03 | 77 | 1006.0 |
| 20260505234506 | 27 | 177 | 3.2 | 16.1 | 0.00 | 0.03 | 0.03 | 76 | 1005.9 |
| 20260505234004 | 27 | 185 | 6.4 | 17.7 | 0.00 | 0.03 | 0.03 | 76 | 1005.9 |
| 20260505233005 | 27 | 148 | 6.4 | 16.1 | 0.00 | 0.03 | 0.03 | 76 | 1005.9 |
| 20260505232505 | 27 | 124 | 4.8 | 16.1 | 0.00 | 0.03 | 0.03 | 75 | 1005.8 |
| 20260505231504 | 27 | 167 | 8.0 | 16.1 | 0.00 | 0.03 | 0.03 | 75 | 1006.0 |
| 20260505231005 | 28 | 168 | 8.0 | 14.5 | 0.00 | 0.03 | 0.03 | 74 | 1005.9 |
| 20260505230505 | 28 | 154 | 3.2 | 14.5 | 0.00 | 0.03 | 0.03 | 74 | 1006.0 |
| 20260505230007 | 28 | 190 | 4.8 | 14.5 | 0.03 | 0.03 | 0.03 | 73 | 1005.9 |
| 20260505225504 | 28 | 193 | 6.4 | 12.9 | 0.03 | 0.03 | 0.03 | 73 | 1005.8 |
| 20260505225008 | 28 | 179 | 9.7 | 12.9 | 0.03 | 0.03 | 0.03 | 73 | 1005.8 |
| 20260505224505 | 28 | 117 | 4.8 | 12.9 | 0.03 | 0.03 | 0.03 | 74 | 1005.7 |
| 20260505224004 | 28 | 194 | 8.0 | 14.5 | 0.03 | 0.03 | 0.03 | 74 | 1005.7 |
| 20260505223504 | 28 | 169 | 3.2 | 17.7 | 0.03 | 0.03 | 0.03 | 74 | 1005.7 |
| 20260505223005 | 28 | 162 | 3.2 | 17.7 | 0.03 | 0.03 | 0.03 | 73 | 1005.8 |
| 20260505222505 | 28 | 173 | 0.0 | 14.5 | 0.03 | 0.03 | 0.03 | 74 | 1006.0 |
| 20260505222004 | 28 | 225 | 8.0 | 14.5 | 0.03 | 0.03 | 0.03 | 73 | 1005.9 |
| 20260505221503 | 28 | 158 | 4.8 | 24.1 | 0.03 | 0.03 | 0.03 | 74 | 1005.9 |
| 20260505221005 | 28 | 177 | 0.0 | 24.1 | 0.03 | 0.03 | 0.03 | 74 | 1005.9 |
| 20260505220504 | 28 | 155 | 1.6 | 16.1 | 0.03 | 0.03 | 0.03 | 75 | 1006.0 |
| 20260505220006 | 28 | 105 | 9.7 | 14.5 | 0.00 | 0.00 | 0.00 | 73 | 1006.0 |
| 20260505215005 | 28 | 256 | 3.2 | 16.1 | 0.00 | 0.00 | 0.00 | 72 | 1006.3 |
| 20260505214505 | 29 | 223 | 4.8 | 16.1 | 0.00 | 0.00 | 0.00 | 73 | 1006.4 |
| 20260505213508 | 28 | 213 | 6.4 | 12.9 | 0.00 | 0.00 | 0.00 | 73 | 1006.4 |
| 20260505213005 | 28 | 217 | 4.8 | 11.3 | 0.00 | 0.00 | 0.00 | 73 | 1006.5 |
| 20260505212505 | 28 | 200 | 3.2 | 11.3 | 0.00 | 0.00 | 0.00 | 72 | 1006.6 |
| 20260505211504 | 28 | 273 | 3.2 | 16.1 | 0.00 | 0.00 | 0.00 | 73 | 1006.6 |
| 20260505211005 | 28 | 215 | 9.7 | 16.1 | 0.00 | 0.00 | 0.00 | 73 | 1006.7 |
| 20260505210007 | 28 | 192 | 4.8 | 19.3 | 0.00 | 0.00 | 0.00 | 72 | 1006.9 |
| 20260505205503 | 28 | 159 | 8.0 | 14.5 | 0.00 | 0.00 | 0.00 | 73 | 1006.8 |
| 20260505205005 | 28 | 181 | 0.0 | 14.5 | 0.00 | 0.00 | 0.00 | 73 | 1006.8 |
| 20260505204503 | 28 | 183 | 8.0 | 12.9 | 0.00 | 0.00 | 0.00 | 73 | 1007.0 |
| 20260505204004 | 28 | 190 | 4.8 | 16.1 | 0.00 | 0.00 | 0.00 | 73 | 1007.0 |
| 20260505203504 | 28 | 153 | 8.0 | 14.5 | 0.00 | 0.00 | 0.00 | 74 | 1007.2 |
| 20260505203005 | 28 | 196 | 3.2 | 12.9 | 0.00 | 0.00 | 0.00 | 74 | 1007.2 |
| 20260505202505 | 28 | 155 | 3.2 | 14.5 | 0.00 | 0.00 | 0.00 | 75 | 1007.3 |
| 20260505200504 | 29 | 180 | 12.9 | 14.5 | 0.00 | 0.00 | 0.00 | 73 | 1007.4 |
| 20260505200006 | 29 | 190 | 4.8 | 12.9 | 0.00 | 0.00 | 0.00 | 74 | 1007.4 |
| 20260505195507 | 28 | 226 | 4.8 | 12.9 | 0.00 | 0.00 | 0.00 | 74 | 1007.6 |
| 20260505194505 | 28 | 182 | 6.4 | 20.9 | 0.00 | 0.00 | 0.00 | 73 | 1007.7 |
| 20260505194004 | 28 | 235 | 8.0 | 17.7 | 0.00 | 0.00 | 0.00 | 74 | 1007.8 |
| 20260505193503 | 28 | 215 | 4.8 | 14.5 | 0.00 | 0.00 | 0.00 | 76 | 1007.9 |
| 20260505193005 | 27 | 182 | 6.4 | 22.5 | 0.00 | 0.00 | 0.00 | 77 | 1007.9 |
| 20260505192505 | 27 | 219 | 8.0 | 22.5 | 0.00 | 0.00 | 0.00 | 77 | 1007.9 |
| 20260505191007 | 27 | 205 | 3.2 | 19.3 | 0.00 | 0.00 | 0.00 | 76 | 1008.0 |
| 20260505190505 | 27 | 190 | 3.2 | 19.3 | 0.00 | 0.00 | 0.00 | 75 | 1008.0 |
| 20260505185503 | 27 | 198 | 3.2 | 19.3 | 0.00 | 0.00 | 0.00 | 75 | 1008.1 |
| 20260505185005 | 27 | 184 | 4.8 | 14.5 | 0.00 | 0.00 | 0.00 | 76 | 1008.1 |
| 20260505184505 | 27 | 198 | 6.4 | 17.7 | 0.00 | 0.00 | 0.00 | 76 | 1008.2 |
| 20260505184004 | 27 | 232 | 8.0 | 17.7 | 0.00 | 0.00 | 0.00 | 76 | 1008.2 |
| 20260505183005 | 27 | 189 | 3.2 | 11.3 | 0.00 | 0.00 | 0.00 | 77 | 1008.3 |
| 20260505182505 | 27 | 225 | 3.2 | 16.1 | 0.00 | 0.00 | 0.00 | 77 | 1008.5 |
| 20260505182004 | 27 | 171 | 9.7 | 22.5 | 0.00 | 0.00 | 0.00 | 78 | 1008.3 |
| 20260505181503 | 27 | 184 | 4.8 | 22.5 | 0.00 | 0.00 | 0.00 | 78 | 1008.4 |
| 20260505180505 | 26 | 184 | 1.6 | 11.3 | 0.00 | 0.00 | 0.00 | 79 | 1008.4 |
| 20260505180007 | 26 | 185 | 8.0 | 11.3 | 0.00 | 0.00 | 0.00 | 78 | 1008.4 |
| 20260505175503 | 27 | 184 | 4.8 | 12.9 | 0.00 | 0.00 | 0.00 | 78 | 1008.4 |
| 20260505175005 | 27 | 165 | 8.0 | 14.5 | 0.00 | 0.00 | 0.00 | 77 | 1008.5 |
| 20260505174004 | 27 | 202 | 1.6 | 16.1 | 0.00 | 0.00 | 0.00 | 77 | 1008.6 |
| 20260505173503 | 27 | 202 | 3.2 | 9.7 | 0.00 | 0.00 | 0.00 | 79 | 1008.6 |
| 20260505172504 | 26 | 219 | 3.2 | 19.3 | 0.00 | 0.00 | 0.00 | 80 | 1008.7 |
| 20260505172006 | 26 | 174 | 1.6 | 11.3 | 0.00 | 0.00 | 0.00 | 80 | 1008.8 |
| 20260505171503 | 26 | 177 | 1.6 | 16.1 | 0.00 | 0.00 | 0.00 | 80 | 1008.8 |
| 20260505171005 | 26 | 161 | 3.2 | 14.5 | 0.00 | 0.00 | 0.00 | 80 | 1008.9 |
| 20260505170504 | 26 | 171 | 8.0 | 14.5 | 0.00 | 0.00 | 0.00 | 81 | 1008.9 |
| 20260505170008 | 26 | 223 | 4.8 | 11.3 | 0.00 | 0.00 | 0.00 | 81 | 1008.8 |
| 20260505165503 | 25 | 165 | 8.0 | 11.3 | 0.00 | 0.00 | 0.00 | 81 | 1008.9 |
| 20260505165014 | 26 | 131 | 3.2 | 11.3 | 0.00 | 0.00 | 0.00 | 81 | 1008.9 |
| 20260505164504 | 26 | 200 | 1.6 | 11.3 | 0.00 | 0.00 | 0.00 | 81 | 1009.0 |
| 20260505164004 | 26 | 227 | 8.0 | 11.3 | 0.00 | 0.00 | 0.00 | 81 | 1009.0 |
| 20260505163004 | 26 | 188 | 1.6 | 12.9 | 0.00 | 0.00 | 0.00 | 81 | 1009.0 |
| 20260505162504 | 26 | 201 | 3.2 | 11.3 | 0.00 | 0.00 | 0.00 | 81 | 1009.0 |
| 20260505162003 | 25 | 196 | 4.8 | 8.0 | 0.00 | 0.00 | 0.00 | 81 | 1008.9 |
| 20260505161503 | 25 | 182 | 3.2 | 8.0 | 0.00 | 0.00 | 0.00 | 81 | 1008.9 |
| 20260505161004 | 25 | 213 | 3.2 | 12.9 | 0.00 | 0.00 | 0.00 | 81 | 1008.9 |
| 20260505160504 | 25 | 171 | 9.7 | 14.5 | 0.00 | 0.00 | 0.00 | 82 | 1008.8 |
| 20260505153004 | 25 | 215 | 3.2 | 14.5 | 0.00 | 0.00 | 0.00 | 82 | 1008.6 |
| 20260505152504 | 25 | 180 | 6.4 | 14.5 | 0.00 | 0.00 | 0.00 | 82 | 1008.7 |
| 20260505152003 | 25 | 213 | 3.2 | 11.3 | 0.00 | 0.00 | 0.00 | 82 | 1008.7 |
| 20260505151004 | 25 | 152 | 4.8 | 11.3 | 0.00 | 0.00 | 0.00 | 82 | 1008.6 |
| 20260505140506 | 24 | 220 | 4.8 | 9.7 | 0.00 | 0.00 | 0.00 | 84 | 1008.4 |
| 20260505125005 | 23 | 151 | 4.8 | 11.3 | 0.00 | 0.00 | 0.00 | 87 | 1007.8 |
| 20260505124005 | 22 | 165 | 3.2 | 8.0 | 0.00 | 0.00 | 0.00 | 87 | 1007.8 |
| 20260505123504 | 22 | 178 | 1.6 | 8.0 | 0.00 | 0.00 | 0.00 | 87 | 1008.3 |
| 20260505123008 | 22 | 184 | 0.0 | 8.0 | 0.00 | 0.00 | 0.00 | 87 | 1008.1 |
| 20260505122504 | 22 | 166 | 6.4 | 9.7 | 0.00 | 0.00 | 0.00 | 87 | 1008.1 |
| 20260505122005 | 22 | 191 | 1.6 | 6.4 | 0.00 | 0.00 | 0.00 | 87 | 1008.2 |
| 20260505121507 | 22 | 188 | 0.0 | 6.4 | 0.00 | 0.00 | 0.00 | 87 | 1008.1 |
| 20260505121005 | 22 | 188 | 3.2 | 8.0 | 0.00 | 0.00 | 0.00 | 87 | 1008.1 |
| 20260505120506 | 22 | 188 | 3.2 | 8.0 | 0.00 | 0.00 | 0.00 | 88 | 1008.1 |
| 20260505120007 | 22 | 178 | 0.0 | 8.0 | 0.00 | 0.00 | 0.00 | 88 | 1007.9 |
| 20260505115504 | 22 | 159 | 1.6 | 9.7 | 0.00 | 0.00 | 0.00 | 88 | 1007.7 |
| 20260505115005 | 22 | 150 | 6.4 | 8.0 | 0.00 | 0.00 | 0.00 | 87 | 1007.6 |
| 20260505114506 | 22 | 196 | 0.0 | 11.3 | 0.00 | 0.00 | 0.00 | 87 | 1007.7 |
| 20260505114004 | 22 | 185 | 6.4 | 11.3 | 0.00 | 0.00 | 0.00 | 87 | 1007.9 |
| 20260505113505 | 22 | 175 | 1.6 | 12.9 | 0.00 | 0.00 | 0.00 | 87 | 1007.9 |
| 20260505112005 | 22 | 219 | 8.0 | 11.3 | 0.00 | 0.00 | 0.00 | 87 | 1007.9 |
| 20260505111504 | 22 | 165 | 6.4 | 11.3 | 0.00 | 0.00 | 0.00 | 87 | 1007.8 |
| 20260505111009 | 22 | 192 | 4.8 | 8.0 | 0.00 | 0.00 | 0.00 | 87 | 1007.7 |
| 20260505110506 | 22 | 190 | 0.0 | 8.0 | 0.00 | 0.00 | 0.00 | 87 | 1007.7 |
| 20260505102004 | 21 | 169 | 1.6 | 9.7 | 0.00 | 0.00 | 0.00 | 87 | 1007.8 |
| 20260505101504 | 21 | 168 | 1.6 | 9.7 | 0.00 | 0.00 | 0.00 | 87 | 1007.8 |
| 20260505100505 | 21 | 130 | 1.6 | 14.5 | 0.00 | 0.00 | 0.00 | 87 | 1008.0 |
| 20260505095504 | 21 | 169 | 1.6 | 6.4 | 0.00 | 0.00 | 0.00 | 87 | 1008.0 |
| 20260505095005 | 21 | 170 | 0.0 | 6.4 | 0.00 | 0.00 | 0.00 | 87 | 1007.9 |
| 20260505093504 | 21 | 169 | 0.0 | 8.0 | 0.00 | 0.00 | 0.00 | 87 | 1008.0 |
| 20260505093005 | 21 | 167 | 1.6 | 11.3 | 0.00 | 0.00 | 0.00 | 87 | 1008.0 |
| 20260505092005 | 21 | 167 | 4.8 | 9.7 | 0.00 | 0.00 | 0.00 | 87 | 1008.2 |
| 20260505091504 | 21 | 168 | 0.0 | 9.7 | 0.00 | 0.00 | 0.00 | 87 | 1008.2 |
| 20260505091010 | 21 | 165 | 1.6 | 9.7 | 0.00 | 0.00 | 0.00 | 87 | 1008.2 |
| 20260505090007 | 21 | 165 | 1.6 | 8.0 | 0.00 | 0.00 | 0.00 | 86 | 1008.1 |
| 20260505085504 | 21 | 165 | 3.2 | 9.7 | 0.00 | 0.00 | 0.00 | 86 | 1008.1 |
| 20260505085005 | 21 | 165 | 3.2 | 9.7 | 0.00 | 0.00 | 0.00 | 86 | 1008.2 |